Reflectivity
-20 -20 -20 -20 -20 -20 -20 -20 -20 -20 -20 -20 -20 -20 -20 -20 -20 -20 -20 -20 -20 -20 -20 -20 -20 -20 -20 -20 -20 -20 -20 -20 -20 -20 -20 -20 -20 -20 -20 -20 -20 -20 -20
-20 -20 -20 -20 -20 -20 -20 -20 -20 -20 -20 -20 -20 -20 -20 -20 -20 -20 -20 -20 -20 -20 -20 -20 -20 -20 -20 -20 -20 -16 -11 -20 -19 10 2 -4 -20 -20 -20 -20 -20 -20 -20
-20 -20 -20 -20 -20 -20 -20 -20 -20 -20 -20 -20 -20 -20 -20 -20 -20 -20 -20 -20 -20 -20 -20 -20 -20 -20 -20 -20 -20 -20 -4 11 -16 4 23 23 11 11 -8 -16 -20 -20 -20
-20 -20 -20 -20 -20 -20 -20 -20 -20 -20 -20 -20 -20 -20 -20 -20 -20 -20 -20 -20 -20 -20 -20 -20 -20 -20 -20 -20 -20 -20 -20 -19 -19 -20 -11 21 19 14 11 4 -13 20 -9
-20 -20 -20 -20 -20 -20 -20 -20 -20 -20 -20 -20 -20 -20 -20 -20 -20 -20 -20 -20 -20 -20 -20 -20 -20 -20 -20 -20 -20 -20 -20 -20 -20 -20 -20 -20 -20 -3 13 -10 -13 -20 -20
-20 -20 -20 -20 -20 -20 -20 -20 -20 -20 -20 -20 -20 -20 -20 -20 -20 -20 -20 -20 -20 -20 -20 -20 -20 -20 -20 -20 -20 -20 -20 -20 -20 -20 -20 -20 -7 -7 7 3 -14 2 -20
-20 -20 -20 -20 -20 -20 -20 -20 -20 -20 -20 -20 -20 -20 -20 -20 -20 -20 -20 -20 -20 -20 -20 -20 -20 -20 -20 -20 -20 -20 -20 -20 -20 -20 -20 -20 -20 -20 -9 -6 -11 7 -20
-20 -20 -20 -20 -20 -20 -20 -20 -20 -20 -20 -20 -20 -20 -20 -20 -20 -20 -20 -20 -20 -20 -20 -20 -20 -20 -20 -20 -20 -20 -20 -20 -20 -20 -20 -20 -20 -20 -20 -8 17 -13 -20
-20 -20 -20 -20 -20 -20 -20 -20 -20 -20 -20 -20 -20 -20 -20 -20 -20 -20 -20 -20 -20 -20 -20 -20 -20 -20 -20 -20 -20 -20 -20 -20 -20 -20 -20 -20 -20 -20 -20 10 16 16 10
-20 -20 -20 -20 -20 -20 -20 -20 -20 -20 -20 -20 -20 -20 -20 -20 -20 -20 -20 -20 -20 -20 -20 -20 -20 -20 -20 -20 -20 -20 -20 -20 -20 -20 -20 -20 -20 -20 -4 -12 -20 -20 4
-20 -20 -20 -20 -20 -20 -20 -20 -20 -20 -20 -20 -20 -20 -20 -20 -20 -20 -20 -20 -20 -20 -20 -20 -20 -20 -20 -20 -20 -20 -20 -20 -20 -20 -20 -20 -20 8 -20 -20 -20 -20 -20
-20 -20 -20 -20 -20 -20 -20 -20 -20 -20 -20 -20 -20 -20 -20 -20 -20 -20 -20 -20 -20 -20 -20 -20 -20 -20 -20 -20 -20 -20 -20 -20 -20 -20 -20 -20 -19 -20 -20 -20 -20 -20 3
-20 -20 -20 -20 -20 -20 -20 -20 -20 -20 -20 -20 -20 -20 -20 -20 -20 -20 -20 -20 -20 -20 -20 -20 -20 -20 -20 -20 -20 -20 -20 -20 -20 -20 -20 -20 -20 -20 -20 -20 -20 12 8
-20 -20 -20 -20 -20 -20 -20 -20 -20 -20 -20 -20 -20 -20 -20 -20 -20 -20 -20 -20 -20 -20 -20 -20 -20 -20 -20 -20 -20 -20 -20 -20 -20 -20 -20 -20 -20 -20 -20 -20 -20 7 9
-20 -20 -20 -20 -20 -20 -20 -20 -20 -20 -20 -20 -20 -20 -20 -20 -20 -20 -20 -20 -20 -20 -20 -20 -20 -20 -20 -20 -20 -20 -20 -20 -20 -20 -20 -20 -20 -20 -20 -20 -20 3 6
-20 -20 -20 -20 -20 -20 -20 -20 -20 -20 -20 -20 -20 -20 -20 -20 -20 -20 -20 -20 -20 -20 -20 -20 -20 -20 -20 -20 -20 -20 -20 -20 -20 -20 -20 -20 -20 -20 -20 -20 -20 5 8
-20 -20 -20 -20 -20 -20 -20 -20 -20 -20 -20 -20 -20 -20 -20 -20 -20 -20 -20 -20 -20 -20 -20 -20 -20 -20 -20 -20 -20 -20 -20 -20 -20 -20 -20 -20 -20 -20 -20 -12 -16 -20 8
-20 -20 -20 -20 -20 -20 -20 -20 -20 -20 -20 -20 -20 -20 -20 -20 -20 -20 -20 -20 -20 -20 -20 -20 -20 -20 -20 -20 -20 -20 -20 -20 -20 -20 -20 -20 -12 -20 6 1 -12 -9 -20
-20 -20 -20 -20 -20 -20 -20 -20 -20 -20 -20 -20 -20 -20 -20 -20 -20 -20 -20 -20 -20 -20 -20 -20 -20 -20 -20 -20 -20 -20 -20 -20 -20 -20 -20 13 -20 -4 10 1 -2 -20 -18
-20 -20 -20 -20 -20 -20 -20 -20 -20 -20 -20 -20 -20 -20 -20 -20 -20 -20 -20 -20 -20 -20 -20 -20 -20 -20 -20 -20 -20 -19 -17 -16 -20 -20 12 -6 2 -16 14 5 4 -2 -20
-20 -20 -20 -20 -20 -20 -20 -20 -20 -20 -20 -20 -20 -20 -20 -20 -20 -20 -20 -20 -20 -20 -20 -20 -20 -20 -20 -20 -20 -20 2 1 2 9 -20 -20 -4 17 -20 -7 -8 -2 -0
-20 -20 -20 -20 -20 -20 -20 -20 -20 -20 -20 -20 -20 -20 -20 -20 -20 -20 -20 -20 -20 -20 -20 -20 -20 -20 -20 -20 -20 -17 5 8 8 -3 -20 7 28 -20 -20 -18 0 3 4
-20 -20 -20 -20 -20 -20 -20 -20 -20 -20 -20 -20 -20 -20 -20 -20 -20 -20 -20 -20 -20 -20 -20 -20 -20 -20 -20 -20 -20 -20 10 14 7 -19 2 11 -20 -20 -20 -20 -19 -11 -14
-20 -20 -20 -20 -20 -20 -20 -20 -20 -20 -20 -20 -20 -20 -20 -20 -20 -20 -20 -20 -20 -20 -20 -20 -11 -20 -20 -20 -20 1 7 -7 5 4 19 -20 -20 -20 -20 -20 -20 -20 -3
-20 -20 -20 -20 -20 -20 -20 -20 -20 -20 -20 -20 -20 -20 -20 -20 -20 -20 -20 -20 -20 -20 -20 -17 1 -5 -13 -20 6 10 4 9 12 9 -20 -20 -20 -20 -20 -20 -20 -20 -20
-20 -20 -20 -20 -20 -20 -20 -20 -20 -20 -20 -20 -20 -20 -20 -20 -20 -20 -20 -20 -20 -20 -20 -16 3 -10 6 -17 11 -20 15 16 -20 -20 -20 -20 -8 -20 -20 -20 -20 -20 -20
Wind_Speed
3 6 8 8 9 8 8 9 11 9 5 4 3 2 1 2 2 2 4 4 4 5 4 4 5 5 4 7 7 5 7 8 6 6 8 9 11 12 11 11 11 13 14
6 7 8 9 8 7 10 12 12 11 7 3 2 2 3 3 3 4 7 8 8 8 6 5 5 5 5 6 6 5 7 6 6 5 7 6 4 7 10 9 10 13 10
6 5 7 7 7 10 10 11 10 11 11 8 4 4 4 4 5 6 5 7 7 9 9 8 7 7 6 6 7 6 8 8 8 7 7 7 8 10 6 7 8 11 9
2 5 6 7 7 7 7 8 10 10 10 9 10 10 5 5 3 2 3 5 8 9 10 9 8 7 5 7 7 7 7 8 9 8 5 9 11 10 12 5 5 7 9
6 6 7 7 5 6 7 7 9 11 9 11 9 7 7 3 2 4 7 7 7 8 10 10 9 8 7 7 6 9 9 5 6 7 8 9 8 8 9 15 9 10 7
6 5 6 6 7 6 7 7 10 10 9 10 10 10 9 7 8 9 8 7 5 5 8 10 8 7 8 9 8 8 8 8 7 6 7 7 7 10 9 12 14 14 10
6 6 7 7 7 7 6 6 9 9 7 10 11 10 8 8 8 7 7 9 8 7 10 10 10 9 10 9 8 8 8 8 7 8 8 7 7 7 9 9 12 12 12
6 7 7 6 7 7 7 7 8 9 8 9 9 7 8 5 5 6 5 5 5 5 7 9 9 9 10 9 10 7 6 9 8 10 7 7 8 8 8 9 10 14 13
7 7 6 6 7 7 7 7 7 7 8 7 6 7 6 7 6 6 4 4 5 7 9 7 8 9 9 10 11 8 10 11 9 7 7 8 9 8 8 8 9 9 13
7 7 6 6 6 6 6 7 7 8 6 6 6 6 6 6 6 6 7 6 6 7 7 8 9 9 10 10 12 9 11 11 7 10 12 11 10 10 8 7 8 8 10
8 7 6 6 6 6 6 6 7 7 7 6 5 7 8 7 6 5 5 6 6 7 8 9 9 10 11 11 11 11 11 13 11 11 13 15 13 9 8 8 8 9 9
7 7 7 7 6 6 6 6 6 6 5 5 7 6 5 5 6 6 6 6 6 7 8 9 9 10 10 11 11 12 11 12 13 13 13 12 10 10 8 8 13 11 6
7 7 6 6 6 5 5 5 6 6 5 5 5 5 5 6 6 6 7 7 8 9 9 9 9 10 11 11 11 9 12 13 13 10 11 14 12 11 10 11 11 9 7
8 7 6 6 5 5 5 5 5 5 5 5 6 5 6 6 6 6 7 7 7 7 9 9 10 10 11 12 11 14 13 12 9 10 11 13 13 13 15 13 14 11 11
7 8 7 6 5 6 5 4 5 5 4 5 5 5 5 5 6 6 6 6 6 8 9 10 11 11 11 9 15 15 15 14 14 13 13 12 17 26 20 14 15 15 13
7 7 7 7 6 5 4 4 3 3 4 4 4 4 5 6 6 6 8 8 8 9 9 10 11 12 10 23 25 22 15 15 14 14 14 14 19 16 26 26 30 25 17
7 8 7 6 6 5 5 4 2 2 1 2 4 5 5 6 7 7 7 9 9 9 10 11 11 13 12 23 26 27 14 14 14 14 15 14 12 18 14 22 27 24 28
7 8 7 6 6 4 3 3 2 1 4 5 6 5 5 6 7 7 7 8 7 9 10 11 12 12 12 24 26 27 14 13 14 15 15 14 14 15 20 20 18 15 18
7 7 6 5 5 5 3 3 2 5 5 5 5 5 5 6 6 8 8 8 8 9 10 10 13 13 13 24 25 23 14 14 15 15 14 15 16 23 31 20 19 20 16
6 7 6 6 6 4 4 3 4 3 4 5 6 5 5 6 7 8 9 6 7 10 10 13 11 15 13 20 25 24 12 14 13 14 12 21 21 31 30 22 19 17 18
7 6 6 6 5 4 3 4 3 4 5 5 5 6 6 6 7 6 5 8 10 9 11 12 11 11 11 14 26 28 15 12 12 10 12 12 28 27 32 32 14 19 24
6 5 6 5 3 4 3 2 3 4 4 5 6 6 7 7 7 7 8 8 8 10 12 12 11 9 10 18 21 28 27 26 14 15 13 14 24 30 31 22 30 32 25
5 4 5 5 3 3 3 2 4 4 5 5 7 7 8 7 7 7 9 8 8 8 11 10 11 11 10 10 23 26 26 26 18 13 21 20 26 29 19 26 29 27 12
5 4 5 4 3 2 1 3 4 5 5 6 7 7 7 9 6 5 6 7 7 8 9 10 11 11 11 10 10 11 12 19 15 18 9 17 22 22 21 17 15 11 12
5 5 4 3 1 2 3 4 5 4 5 6 7 7 6 7 8 7 6 7 7 9 12 11 11 12 12 12 24 23 15 14 17 22 10 10 11 12 12 12 13 12 13
5 4 3 2 2 3 5 6 5 5 5 7 6 6 7 6 7 8 9 12 17 21 23 24 19 11 22 28 29 30 29 28 33 15 10 10 10 12 13 13 14 13 17
Wind_Direction
18 25 24 21 19 21 23 23 32 14 52 64 71 60 331 0 13 346 322 318 312 299 270 268 282 283 272 282 290 282 274 281 266 277 271 260 253 251 247 244 245 245 240
51 31 26 28 23 28 32 35 32 30 34 59 64 94 87 61 57 29 35 29 35 29 30 5 341 323 308 306 298 286 293 280 282 264 281 286 282 247 242 246 244 248 251
112 80 53 39 29 34 28 38 30 36 35 31 45 45 43 34 25 20 25 18 30 33 28 21 14 4 359 345 329 316 306 301 295 268 271 295 292 308 261 237 235 242 241
131 99 84 58 46 33 37 44 44 42 38 30 58 63 59 62 10 1 356 15 20 22 22 13 7 360 353 354 342 343 333 330 321 317 287 271 289 303 305 264 272 259 256
140 117 97 88 67 55 53 49 58 50 41 50 52 64 62 47 10 11 22 17 12 14 18 8 1 356 350 337 330 335 337 320 322 317 315 313 304 297 302 304 305 293 282
150 117 100 96 78 61 55 53 66 50 43 52 47 55 53 38 35 20 19 6 5 1 10 360 356 346 343 340 331 326 322 318 312 311 312 309 309 308 307 303 305 297 294
161 138 115 98 89 79 66 69 68 58 48 57 51 43 44 41 38 20 12 7 2 2 359 356 352 349 341 336 330 321 310 309 304 306 306 303 303 301 301 299 301 297 306
173 148 129 119 112 100 80 72 66 63 49 54 51 45 42 42 35 24 13 6 355 338 345 343 342 340 336 334 332 323 315 314 307 303 305 306 306 299 294 291 295 302 299
170 147 125 125 113 91 81 84 79 68 56 54 60 46 39 36 25 11 3 356 348 349 346 334 334 336 336 335 332 325 325 321 316 314 315 309 308 300 293 286 300 299 306
160 140 132 125 99 95 88 73 71 73 63 56 46 47 32 25 18 12 7 353 339 337 335 339 339 338 338 334 334 327 327 321 333 327 327 308 307 303 293 303 303 300 296
171 154 138 118 109 95 77 71 63 61 51 51 45 39 26 16 3 3 351 348 333 331 335 338 336 338 335 333 330 327 325 330 327 322 316 310 310 305 319 308 317 307 299
172 149 140 128 113 92 74 67 60 62 50 48 45 35 16 5 4 352 338 332 333 335 335 335 333 332 329 325 321 318 327 320 323 319 315 318 329 318 318 318 308 300 302
145 138 131 131 112 95 79 67 56 53 52 57 50 31 16 3 352 338 342 343 339 338 337 334 330 328 325 322 315 320 319 318 319 322 328 319 315 314 312 310 298 292 296
158 143 135 124 113 96 86 71 60 51 48 44 33 17 6 353 344 322 330 336 330 323 328 331 326 325 323 319 326 326 324 323 314 321 315 312 316 313 316 306 306 303 305
150 150 145 137 127 104 89 76 59 47 46 43 25 355 342 337 329 323 325 320 327 332 325 324 324 323 322 324 329 324 321 320 318 318 316 313 313 311 313 316 313 310 306
165 153 144 142 125 120 113 95 78 50 50 39 8 350 344 334 324 326 334 334 325 325 323 317 318 321 320 324 326 328 320 318 317 315 313 309 308 307 314 311 312 310 314
165 153 148 141 139 140 147 138 108 52 26 32 15 357 336 329 332 330 327 323 328 319 316 320 318 314 313 320 325 326 320 318 313 310 308 306 305 312 299 302 307 305 304
149 142 143 135 145 145 127 132 88 30 27 13 350 337 327 329 323 316 310 319 315 311 315 312 308 306 308 321 324 325 321 312 306 302 301 303 311 302 310 310 318 309 301
154 149 149 144 128 130 136 108 40 30 11 338 312 333 333 322 306 320 322 306 306 318 311 306 305 306 309 320 323 325 318 310 306 305 309 310 303 309 320 323 314 312 306
121 133 127 127 132 130 119 99 39 8 335 324 319 325 309 305 327 300 297 295 305 303 302 302 301 305 309 308 321 325 318 310 310 309 306 304 313 316 325 326 319 320 312
120 122 124 133 144 150 109 65 4 330 308 311 318 312 325 309 277 285 290 304 305 297 298 302 308 303 300 308 319 324 319 313 313 313 312 308 313 325 331 323 329 311 313
133 133 128 139 142 89 72 35 307 296 314 322 314 313 294 296 303 294 297 293 294 301 307 307 305 305 299 310 318 319 320 320 320 314 309 311 330 334 329 333 320 323 324
149 134 134 132 127 113 77 318 293 321 322 325 316 300 296 293 291 291 298 305 304 303 301 303 304 308 315 311 312 313 314 318 318 314 312 338 333 331 329 323 325 325 314
162 148 144 159 155 95 261 263 308 327 331 308 296 294 291 304 293 277 284 293 298 295 299 302 311 313 313 312 306 309 311 316 317 309 333 326 330 327 321 321 320 315 311
166 157 149 145 219 271 326 326 321 322 306 293 286 285 285 285 301 294 284 291 282 294 308 310 312 313 314 311 317 322 320 320 324 328 325 326 325 319 321 320 320 316 311
152 144 151 160 307 333 315 312 318 315 296 292 297 296 304 301 303 301 301 296 305 311 313 315 315 314 315 316 321 322 326 330 334 323 315 320 316 320 321 320 319 315 311